Location: Bezawada
(16.5136°N, 80.6297°E)
Time: 22:21:20
(UTC+00:00)

H-2A R/B - Pass Details

Date: 27 February 2020
Orbit: 529 x 652 km, 98.3° (Epoch: 05 April)

Event Time Altitude Azimuth Distance (km) Brightness Sun altitude
Rises 22:55:26 0° 15° (NNE) 2,966 6.2 -29.8°
Reaches altitude 10° 22:57:40 10° 17° (NNE) 2,054 5.4 -29.2°
Enters shadow 22:59:35 25° 22° (NNE) 1,305 4.3 -28.8°
